Regional Weather Roundup
Issued by NWS

Home | Current Version | Previous Version | Text Only | Print | Product List | Glossary Off
Versions: 1 2 3 4 5 6 7 8 9 10 11 12 13 14 15 16 17 18 19 20 21 22 23 24 25 26 27 28 29 30 31 32 33 34 35 36 37 38 39 40 41 42 43 44 45 46 47 48 49 50

000
ASUS43 KLOT 111800
RWRIL

ILLINOIS REGIONAL WEATHER ROUNDUP
NATIONAL WEATHER SERVICE CHICAGO/ROMEOVILLE IL
100 PM CDT FRI JUL 11 2014

NOTE: "FAIR" INDICATES FEW OR NO CLOUDS BELOW 12,000 FEET WITH NO
SIGNIFICANT WEATHER AND/OR OBSTRUCTIONS TO VISIBILITY.

* THESE STATIONS ARE NOT UNDER NWS QUALITY CONTROL. THEY ALSO MAY NOT
  REPORT WEATHER SUCH AS PRECIPITATION OR FOG.

ILZ001-002-007-009-015-016-024-111900-
NORTHWEST ILLINOIS

CITY           SKY/WX    TMP DP  RH WIND       PRES   REMARKS
MOLINE         MOSUNNY   77  62  59 SE9       30.12F
6HR MIN TEMP:  63; 6HR MAX TEMP:  80;

STERLING*      PTSUNNY   79  63  57 S7        30.17F HX  80
$$

ILZ003-004-008-010-011-017-018-111900-
NORTH CENTRAL ILLINOIS

CITY           SKY/WX    TMP DP  RH WIND       PRES   REMARKS
ROCKFORD       PTSUNNY   76  56  49 S12       30.19F
6HR MIN TEMP:  61; 6HR MAX TEMP:  78; 6HR PCP: TRACE;

FREEPORT*      PTSUNNY   72  56  57 S10       30.19F
$$

ILZ005-006-012>014-019>023-111900-
NORTHEAST ILLINOIS

CITY           SKY/WX    TMP DP  RH WIND       PRES   REMARKS
CHICAGO-OHARE  PTSUNNY   80  50  34 S9        30.18F HX  80
6HR MIN TEMP:  64; 6HR MAX TEMP:  80;

CHICAGO-MIDWAY PTSUNNY   82  51  34 SW9       30.18F HX  81
6HR MIN TEMP:  66; 6HR MAX TEMP:  82;

AURORA         MOSUNNY   79  55  43 S10       30.20S
6HR MIN TEMP:  61; 6HR MAX TEMP:  79;

LANSING*       SUNNY     78  48  34 SW8       30.19F
WAUKEGAN       MOSUNNY   76  56  49 SE10      30.19S
6HR MIN TEMP:  63; 6HR MAX TEMP:  77;

DUPAGE AIRPORT MOSUNNY   80  53  39 SE7       30.18F HX  80
6HR MIN TEMP:  62; 6HR MAX TEMP:  81;

WHEELING       MOSUNNY   80  50  34 SW8       30.19F HX  80
6HR MIN TEMP:  64; 6HR MAX TEMP:  81;

NORTHERLY ISL    N/A     74  60  61 E8          N/A
$$

LMZ740>746-111900-
SOUTHERN LAKE MICHIGAN

STATION/POSITION SKY/WX   TEMP    WIND        PRES    VSBY  WAVE
                          AIR SEA DIR/SP/G                  HT/PER
                          (F)     (DEG/KT/KT) (MB)    (MI)  (FT/S)
SOUTHERN BUOY              62 59  170/  8/  8 1023.1F         0
WAUKEGAN HARBOR            71     170/  6/  9 1023.4F
HARRISON CRIB              70     120/ 11/ 13   N/A
BURNHAM HARBOR             73      90/  7/ 10   N/A
CALUMET HARBOR             74      50/  7/  8 1023.1F
BURNS HARBOR               78     190/  6/ 11 1023.0S
MICHIGAN CITY              74     160/  9/ 17   N/A
$$

ILZ025>027-034>036-040-047-049-050-058-095>099-111900-
WEST-CENTRAL ILLINOIS

CITY           SKY/WX    TMP DP  RH WIND       PRES   REMARKS
QUINCY         MOSUNNY   81  66  60 S12       30.11F HX  83
GALESBURG*     MOSUNNY   81  65  59 S10       30.14F HX  82
MACOMB*        MOSUNNY   80  65  61 SE14      30.15F HX  82
$$

ILZ028>032-037-038-041>044-048-051>054-059>061-111900-
CENTRAL ILLINOIS

CITY           SKY/WX    TMP DP  RH WIND       PRES   REMARKS
DECATUR        SUNNY     81  60  48 S8        30.18F HX  82
PEORIA         SUNNY     81  61  50 S12       30.16F HX  82
6HR MIN TEMP:  65; 6HR MAX TEMP:  81;

SPRINGFIELD    SUNNY     83  64  52 S6        30.16F HX  84
6HR MIN TEMP:  63; 6HR MAX TEMP:  83;

TAYLORVILLE    NOT AVBL
$$

ILZ033-039-045-046-055>057-062-063-111900-
EAST-CENTRAL ILLINOIS

CITY           SKY/WX    TMP DP  RH WIND       PRES   REMARKS
CHAMPAIGN      SUNNY     81  57  43 SE6       30.19F HX  81
MATTOON        SUNNY     81  56  42 VRB6      30.18F HX  81
$$

ILZ079-100>102-111900-
SOUTHWEST ILLINOIS

CITY           SKY/WX    TMP DP  RH WIND       PRES   REMARKS
ALTON          SUNNY     82  66  57 SE9       30.16F HX  85
BELLEVILLE     MOSUNNY   85  68  57 S9        30.15F HX  88
CAHOKIA*       SUNNY     87  67  51 SE8       30.14F HX  90
SPARTA*        SUNNY     82  64  54 SE6       30.17F HX  84
$$

ILZ064>066-069>071-074>076-080>082-084>086-088>090-092>094-111900-
SOUTH-CENTRAL ILLINOIS

CITY           SKY/WX    TMP DP  RH WIND       PRES   REMARKS
CARBONDALE     MOSUNNY   85  64  49 CALM      30.17F HX  86
6HR MIN TEMP:  64; 6HR MAX TEMP:  86;

MARION         MOSUNNY   86  66  51 S8        30.18F HX  88
MT. VERNON     SUNNY     86  64  48 SE7       30.18F HX  87
SALEM*         SUNNY     85  62  46 S8        30.18F HX  85
$$

ILZ067-068-072-073-078-083-087-091-111900-
SOUTHEAST ILLINOIS

CITY           SKY/WX    TMP DP  RH WIND       PRES   REMARKS
HARRISBURG*    SUNNY     84  63  49 CALM      30.19F HX  85
ROBINSON*      SUNNY     86  57  37 SE6       30.20F HX  85
$$

ABBREVIATIONS USED IN REMARKS
   TC - TEMPERATURE IN CELSIUS
  WCI - WIND CHILL INDEX
   HX - HEAT INDEX
  VSB - VISIBILITY
$$



USA.gov is the U.S. government's official web portal to all federal, state and local government web resources and services.